This is the latest recevied weather packets stored in our database for station/object SALT. If no packets are shown the sender has not sent any weather packets the latest 10 day(s).
| Time | Temp. | Humidity | Pressure | Rain* | Wind** | Luminosity | Snow |
|---|---|---|---|---|---|---|---|
| 1777953533 | 11.11° C | 57% | 1013 hPa | 0 mm | - | - | - |
| 1777952931 | 11.11° C | 56% | 1012.8 hPa | 0 mm | - | - | - |
| 1777952327 | 11.67° C | 54% | 1012.7 hPa | 0 mm | - | - | - |
| 1777951723 | 11.67° C | 53% | 1012.4 hPa | 0 mm | - | - | - |
| 1777951120 | 12.22° C | 52% | 1012.3 hPa | 0 mm | - | - | - |
| 1777950517 | 11.67° C | 52% | 1012.1 hPa | 0 mm | - | - | - |
| 1777949915 | 11.67° C | 53% | 1012.1 hPa | 0 mm | - | - | - |
| 1777949312 | 11.67° C | 52% | 1012 hPa | 0 mm | - | - | - |
| 1777948748 | 12.22° C | 51% | 1012 hPa | 0 mm | - | - | - |
| 1777948709 | 12.22° C | 51% | 1012 hPa | 0 mm | - | - | - |
| 1777948105 | 12.78° C | 50% | 1011.8 hPa | 0 mm | - | - | - |
| 1777947502 | 12.78° C | 48% | 1011.7 hPa | 0 mm | - | - | - |
| 1777946900 | 13.33° C | 47% | 1011.6 hPa | 0 mm | - | - | - |
| 1777946297 | 13.89° C | 46% | 1011.6 hPa | 0 mm | - | - | - |
| 1777945694 | 14.44° C | 44% | 1011.6 hPa | 0 mm | - | - | - |
| 1777945091 | 14.44° C | 43% | 1011.6 hPa | 0 mm | - | - | - |
| 1777944487 | 14.44° C | 43% | 1011.6 hPa | 0 mm | - | - | - |
| 1777943925 | 14.44° C | 39% | 1011.7 hPa | 0 mm | - | - | - |
| 1777943884 | 14.44° C | 39% | 1011.7 hPa | 0 mm | - | - | - |
| 1777943281 | 15° C | 39% | 1011.6 hPa | 0 mm | - | - | - |
| 1777942679 | 15.56° C | 39% | 1011.6 hPa | 0 mm | - | - | - |
| 1777942076 | 15.56° C | 41% | 1011.6 hPa | 0 mm | - | - | - |
| 1777941473 | 15.56° C | 40% | 1011.6 hPa | 0 mm | - | - | - |
| 1777940869 | 15.56° C | 41% | 1011.6 hPa | 0 mm | - | - | - |
| 1777940266 | 15.56° C | 44% | 1011.6 hPa | 0 mm | - | - | - |
* Rain latest 24 hours (hover to see other rain measurements)
** Current wind speed in m/s (hover to see current wind gust speed)